{"data":{"norad_id":59093,"epoch":"2026-09-20T09:05:37.557888Z","epoch_age_seconds":169269,"freshness":"FRESH","line1":"1 59093U 24041V   26263.37890692  .00000030  00000+0  10626-4 0  9991","line2":"2 59093  43.0006 291.4595 0001213 274.7546  85.3167 15.27575613144098","mean_motion":15.27575613,"eccentricity":0.0001213,"inclination_deg":43.0006,"raan_deg":291.4595,"arg_perigee_deg":274.7546,"mean_anomaly_deg":85.3167,"bstar":1.0626e-5,"rev_number":14409,"period_min":94.267019435587,"perigee_km":482.22996886043,"apogee_km":483.89449579419,"semimajor_km":6861.1992323273,"source":"CELESTRAK","updated_at":"2026-09-21T09:00:34.037191Z"}}